| time (UTC) | temp C | wind direction | speed KPH | gust KPH | rain 1hr cm | rain 24hr cm | rain mn cm | humidity % | barometer mb |
| 20260506212000 | 13 | 225 | 16.1 | 20.9 | 0.00 | 0.00 | 0.05 | 94 | 29.7 |
| 20260506204500 | 13 | 225 | 12.9 | 32.2 | 0.00 | 0.00 | 0.05 | 93 | 29.7 |
| 20260506204000 | 13 | 204 | 17.7 | 24.1 | 0.00 | 0.00 | 0.05 | 94 | 29.7 |
| 20260506203000 | 13 | 208 | 11.3 | 27.4 | 0.00 | 0.00 | 0.05 | 94 | 29.7 |
| 20260506202500 | 13 | 223 | 20.9 | 40.2 | 0.00 | 0.00 | 0.05 | 94 | 29.7 |
| 20260506202000 | 13 | 202 | 24.1 | 37.0 | 0.00 | 0.00 | 0.05 | 94 | 29.7 |
| 20260506201500 | 13 | 225 | 27.4 | 32.2 | 0.00 | 0.00 | 0.05 | 93 | 29.7 |
| 20260506200500 | 13 | 228 | 24.1 | 37.0 | 0.00 | 0.00 | 0.05 | 92 | 29.7 |
| 20260506195500 | 13 | 226 | 25.7 | 32.2 | 0.00 | 0.00 | 0.05 | 92 | 29.7 |
| 20260506195000 | 13 | 207 | 12.9 | 41.8 | 0.00 | 0.00 | 0.05 | 91 | 29.7 |
| 20260506194000 | 13 | 206 | 19.3 | 33.8 | 0.00 | 0.00 | 0.05 | 92 | 29.7 |
| 20260506185500 | 13 | 197 | 14.5 | 30.6 | 0.00 | 0.00 | 0.05 | 92 | 29.8 |
| 20260506183500 | 13 | 197 | 22.5 | 40.2 | 0.05 | 0.00 | 0.05 | 92 | 29.8 |
| 20260506182500 | 13 | 202 | 17.7 | 29.0 | 0.05 | 0.00 | 0.05 | 93 | 29.8 |
| 20260506182000 | 13 | 210 | 24.1 | 41.8 | 0.05 | 0.00 | 0.05 | 92 | 29.8 |
| 20260506181000 | 13 | 229 | 19.3 | 32.2 | 0.05 | 0.00 | 0.05 | 93 | 29.8 |
| 20260506180500 | 13 | 212 | 27.4 | 45.1 | 0.05 | 0.00 | 0.05 | 93 | 29.8 |
| 20260506180001 | 13 | 192 | 16.1 | 27.4 | 0.05 | 0.00 | 0.05 | 93 | 29.8 |
| 20260506175500 | 13 | 207 | 14.5 | 45.1 | 0.05 | 0.00 | 0.05 | 93 | 29.8 |
| 20260506174501 | 13 | 221 | 9.7 | 35.4 | 0.03 | 0.00 | 0.03 | 93 | 29.8 |
| 20260506174000 | 13 | 207 | 37.0 | 38.6 | 0.00 | 0.00 | 0.00 | 92 | 29.8 |
| 20260506173000 | 13 | 208 | 27.4 | 35.4 | 0.00 | 0.00 | 0.00 | 92 | 29.8 |
| 20260506171500 | 13 | 232 | 20.9 | 40.2 | 0.00 | 0.00 | 0.00 | 92 | 29.8 |
| 20260506171000 | 13 | 213 | 25.7 | 38.6 | 0.00 | 0.00 | 0.00 | 91 | 29.8 |
| 20260506170500 | 13 | 220 | 38.6 | 41.8 | 0.00 | 0.00 | 0.00 | 91 | 29.8 |
| 20260506170000 | 13 | 205 | 33.8 | 43.5 | 0.00 | 0.00 | 0.00 | 90 | 29.8 |
| 20260506165500 | 13 | 201 | 30.6 | 40.2 | 0.00 | 0.00 | 0.00 | 90 | 29.8 |
| 20260506165000 | 13 | 210 | 20.9 | 48.3 | 0.00 | 0.00 | 0.00 | 89 | 29.8 |
| 20260506163500 | 13 | 210 | 14.5 | 32.2 | 0.00 | 0.00 | 0.00 | 88 | 29.8 |
| 20260506162000 | 13 | 194 | 16.1 | 43.5 | 0.00 | 0.00 | 0.00 | 87 | 29.8 |
| 20260506161500 | 13 | 209 | 19.3 | 41.8 | 0.00 | 0.00 | 0.00 | 87 | 29.8 |
| 20260506160000 | 13 | 206 | 30.6 | 38.6 | 0.00 | 0.00 | 0.00 | 87 | 29.8 |
| 20260506155000 | 13 | 209 | 20.9 | 48.3 | 0.00 | 0.00 | 0.00 | 87 | 29.8 |
| 20260506154500 | 14 | 218 | 30.6 | 41.8 | 0.00 | 0.00 | 0.00 | 86 | 29.8 |
| 20260506153500 | 14 | 239 | 20.9 | 41.8 | 0.00 | 0.00 | 0.00 | 86 | 29.8 |
| 20260506153001 | 14 | 230 | 9.7 | 46.7 | 0.00 | 0.00 | 0.00 | 86 | 29.8 |
| 20260506152500 | 14 | 213 | 24.1 | 37.0 | 0.00 | 0.00 | 0.00 | 86 | 29.8 |
| 20260506152000 | 14 | 205 | 33.8 | 45.1 | 0.00 | 0.00 | 0.00 | 86 | 29.8 |
| 20260506151500 | 14 | 215 | 14.5 | 35.4 | 0.00 | 0.00 | 0.00 | 86 | 29.8 |
| 20260506150500 | 14 | 217 | 22.5 | 41.8 | 0.00 | 0.00 | 0.00 | 86 | 29.8 |
| 20260506145500 | 14 | 182 | 27.4 | 41.8 | 0.00 | 0.00 | 0.00 | 86 | 29.8 |
| 20260506145000 | 14 | 202 | 27.4 | 38.6 | 0.00 | 0.00 | 0.00 | 86 | 29.8 |
| 20260506142500 | 14 | 202 | 14.5 | 41.8 | 0.00 | 0.00 | 0.00 | 86 | 29.8 |
| 20260506141500 | 14 | 220 | 33.8 | 40.2 | 0.00 | 0.00 | 0.00 | 85 | 29.8 |
| 20260506140500 | 14 | 213 | 29.0 | 43.5 | 0.00 | 0.00 | 0.00 | 86 | 29.8 |
| 20260506140000 | 14 | 214 | 25.7 | 45.1 | 0.00 | 0.00 | 0.00 | 86 | 29.8 |
| 20260506135000 | 14 | 201 | 24.1 | 37.0 | 0.00 | 0.00 | 0.00 | 87 | 29.8 |
| 20260506134500 | 13 | 234 | 19.3 | 45.1 | 0.00 | 0.00 | 0.00 | 87 | 29.8 |
| 20260506134000 | 14 | 227 | 24.1 | 37.0 | 0.00 | 0.00 | 0.00 | 87 | 29.8 |
| 20260506133001 | 14 | 208 | 33.8 | 37.0 | 0.00 | 0.00 | 0.00 | 87 | 29.8 |
| 20260506132500 | 13 | 209 | 17.7 | 43.5 | 0.00 | 0.00 | 0.00 | 87 | 29.8 |
| 20260506132000 | 13 | 214 | 19.3 | 37.0 | 0.00 | 0.00 | 0.00 | 87 | 29.8 |
| 20260506131500 | 13 | 237 | 12.9 | 40.2 | 0.00 | 0.00 | 0.00 | 88 | 29.8 |
| 20260506130000 | 13 | 217 | 27.4 | 37.0 | 0.00 | 0.00 | 0.00 | 88 | 29.8 |
| 20260506125500 | 13 | 213 | 38.6 | 38.6 | 0.00 | 0.00 | 0.00 | 88 | 29.8 |
| 20260506125000 | 13 | 219 | 14.5 | 29.0 | 0.00 | 0.00 | 0.00 | 88 | 29.8 |
| 20260506124500 | 13 | 226 | 19.3 | 37.0 | 0.00 | 0.00 | 0.00 | 88 | 29.8 |
| 20260506124000 | 13 | 203 | 24.1 | 38.6 | 0.00 | 0.00 | 0.00 | 87 | 29.8 |
| 20260506123500 | 14 | 224 | 25.7 | 32.2 | 0.00 | 0.00 | 0.00 | 87 | 29.8 |
| 20260506123000 | 13 | 203 | 27.4 | 38.6 | 0.00 | 0.00 | 0.00 | 87 | 29.8 |
| 20260506122500 | 14 | 233 | 16.1 | 32.2 | 0.00 | 0.00 | 0.00 | 87 | 29.8 |
| 20260506122000 | 13 | 213 | 17.7 | 37.0 | 0.00 | 0.00 | 0.00 | 88 | 29.8 |
| 20260506121500 | 13 | 209 | 27.4 | 32.2 | 0.00 | 0.00 | 0.00 | 89 | 29.8 |
| 20260506121000 | 13 | 217 | 24.1 | 40.2 | 0.00 | 0.00 | 0.00 | 88 | 29.8 |
| 20260506115000 | 13 | 205 | 17.7 | 46.7 | 0.00 | 0.00 | 0.00 | 89 | 29.8 |
| 20260506114500 | 13 | 203 | 25.7 | 38.6 | 0.00 | 0.00 | 0.00 | 89 | 29.8 |
| 20260506114000 | 13 | 203 | 12.9 | 37.0 | 0.00 | 0.00 | 0.00 | 89 | 29.8 |
| 20260506113000 | 13 | 218 | 11.3 | 30.6 | 0.00 | 0.00 | 0.00 | 90 | 29.8 |
| 20260506111000 | 13 | 233 | 17.7 | 35.4 | 0.00 | 0.00 | 0.00 | 90 | 29.8 |
| 20260506105000 | 13 | 237 | 25.7 | 33.8 | 0.00 | 0.00 | 0.00 | 91 | 29.8 |
| 20260506104500 | 13 | 196 | 14.5 | 33.8 | 0.00 | 0.00 | 0.00 | 91 | 29.8 |
| 20260506102500 | 13 | 207 | 24.1 | 33.8 | 0.00 | 0.00 | 0.00 | 91 | 29.8 |
| 20260506093500 | 13 | 219 | 24.1 | 43.5 | 0.00 | 0.00 | 0.00 | 91 | 29.8 |
| 20260506090500 | 13 | 210 | 16.1 | 30.6 | 0.00 | 0.00 | 0.00 | 91 | 29.8 |
| 20260506085000 | 13 | 206 | 20.9 | 30.6 | 0.00 | 0.00 | 0.00 | 91 | 29.8 |
| 20260506081001 | 13 | 210 | 24.1 | 37.0 | 0.00 | 0.00 | 0.00 | 89 | 29.8 |
| 20260506062500 | 13 | 225 | 30.6 | 43.5 | 0.00 | 0.00 | 0.00 | 86 | 29.9 |
| 20260506061500 | 13 | 220 | 24.1 | 49.9 | 0.00 | 0.00 | 0.00 | 86 | 29.8 |
| 20260506060500 | 13 | 221 | 24.1 | 43.5 | 0.00 | 0.00 | 0.00 | 85 | 29.9 |
| 20260506042500 | 14 | 220 | 29.0 | 43.5 | 0.00 | 0.00 | 0.00 | 84 | 29.9 |
| 20260506041500 | 14 | 228 | 25.7 | 48.3 | 0.00 | 0.00 | 0.00 | 84 | 29.9 |
| 20260506041000 | 14 | 232 | 27.4 | 41.8 | 0.00 | 0.00 | 0.00 | 83 | 29.9 |
| 20260506034500 | 14 | 238 | 29.0 | 43.5 | 0.00 | 0.00 | 0.00 | 83 | 29.9 |
| 20260506034000 | 14 | 221 | 29.0 | 43.5 | 0.00 | 0.00 | 0.00 | 83 | 29.9 |
| 20260506033500 | 14 | 218 | 20.9 | 33.8 | 0.00 | 0.00 | 0.00 | 83 | 29.9 |
| 20260506031500 | 13 | 218 | 25.7 | 29.0 | 0.00 | 0.00 | 0.00 | 83 | 29.9 |
| 20260506031000 | 14 | 214 | 27.4 | 35.4 | 0.00 | 0.00 | 0.00 | 83 | 29.9 |
| 20260506030500 | 14 | 215 | 17.7 | 45.1 | 0.00 | 0.00 | 0.00 | 83 | 29.9 |
| 20260506025000 | 14 | 221 | 17.7 | 33.8 | 0.00 | 0.00 | 0.00 | 83 | 29.9 |
| 20260506024500 | 14 | 217 | 33.8 | 43.5 | 0.00 | 0.00 | 0.00 | 83 | 29.9 |
| 20260506023500 | 14 | 218 | 29.0 | 40.2 | 0.00 | 0.00 | 0.00 | 83 | 29.9 |
| 20260506020500 | 14 | 233 | 29.0 | 48.3 | 0.00 | 0.00 | 0.00 | 82 | 29.9 |
| 20260506020000 | 15 | 227 | 30.6 | 49.9 | 0.00 | 0.00 | 0.00 | 81 | 29.9 |
| 20260506015500 | 14 | 214 | 16.1 | 46.7 | 0.00 | 0.00 | 0.00 | 81 | 29.9 |
| 20260506015001 | 14 | 214 | 17.7 | 33.8 | 0.00 | 0.00 | 0.00 | 81 | 29.9 |
| 20260506014501 | 14 | 219 | 20.9 | 30.6 | 0.00 | 0.00 | 0.00 | 81 | 29.9 |
| 20260506013500 | 15 | 210 | 24.1 | 45.1 | 0.00 | 0.00 | 0.00 | 80 | 29.9 |
| 20260506012500 | 14 | 211 | 40.2 | 46.7 | 0.00 | 0.00 | 0.00 | 80 | 29.9 |
| 20260506012000 | 14 | 220 | 27.4 | 46.7 | 0.00 | 0.00 | 0.00 | 80 | 29.9 |
| 20260506011500 | 15 | 211 | 24.1 | 40.2 | 0.00 | 0.00 | 0.00 | 79 | 29.9 |
| 20260506011000 | 15 | 208 | 24.1 | 38.6 | 0.00 | 0.00 | 0.00 | 78 | 29.9 |
| 20260506004000 | 15 | 211 | 32.2 | 57.9 | 0.00 | 0.00 | 0.00 | 77 | 29.8 |
| 20260506003500 | 15 | 210 | 38.6 | 49.9 | 0.00 | 0.00 | 0.00 | 77 | 29.8 |
| 20260506003000 | 15 | 212 | 30.6 | 46.7 | 0.00 | 0.00 | 0.00 | 77 | 29.8 |
| 20260506002500 | 15 | 211 | 20.9 | 54.7 | 0.00 | 0.00 | 0.00 | 77 | 29.8 |
| 20260506002000 | 15 | 219 | 33.8 | 48.3 | 0.00 | 0.00 | 0.00 | 77 | 29.8 |
| 20260506001500 | 15 | 211 | 33.8 | 49.9 | 0.00 | 0.00 | 0.00 | 77 | 29.8 |
| 20260506001000 | 15 | 203 | 32.2 | 49.9 | 0.00 | 0.00 | 0.00 | 77 | 29.8 |
| 20260506000500 | 15 | 201 | 12.9 | 40.2 | 0.00 | 0.00 | 0.00 | 77 | 29.8 |
| 20260506000000 | 15 | 219 | 30.6 | 46.7 | 0.00 | 0.00 | 0.00 | 77 | 29.8 |
| 20260505235500 | 15 | 207 | 29.0 | 54.7 | 0.00 | 0.00 | 0.00 | 77 | 29.8 |
| 20260505234500 | 15 | 198 | 20.9 | 51.5 | 0.00 | 0.00 | 0.00 | 76 | 29.8 |
| 20260505233000 | 15 | 215 | 35.4 | 49.9 | 0.00 | 0.00 | 0.00 | 76 | 29.8 |
| 20260505231000 | 15 | 223 | 27.4 | 74.0 | 0.00 | 0.00 | 0.00 | 76 | 29.8 |
| 20260505230500 | 15 | 204 | 25.7 | 66.0 | 0.00 | 0.00 | 0.00 | 77 | 29.8 |
| 20260505230000 | 15 | 212 | 25.7 | 61.2 | 0.00 | 0.00 | 0.00 | 77 | 29.8 |
| 20260505225000 | 15 | 219 | 20.9 | 40.2 | 0.00 | 0.00 | 0.00 | 77 | 29.8 |
| 20260505224500 | 15 | 219 | 29.0 | 49.9 | 0.00 | 0.00 | 0.00 | 77 | 29.8 |
| 20260505224000 | 15 | 214 | 20.9 | 48.3 | 0.00 | 0.00 | 0.00 | 77 | 29.8 |
| 20260505223500 | 15 | 218 | 30.6 | 56.3 | 0.00 | 0.00 | 0.00 | 77 | 29.8 |
| 20260505222500 | 15 | 205 | 27.4 | 57.9 | 0.00 | 0.00 | 0.00 | 76 | 29.8 |
| 20260505221500 | 15 | 215 | 43.5 | 48.3 | 0.00 | 0.00 | 0.00 | 76 | 29.8 |
| 20260505221000 | 15 | 202 | 25.7 | 40.2 | 0.00 | 0.00 | 0.00 | 76 | 29.8 |
| 20260505220500 | 16 | 195 | 41.8 | 53.1 | 0.00 | 0.00 | 0.00 | 75 | 29.8 |
| 20260505220000 | 15 | 199 | 30.6 | 46.7 | 0.00 | 0.00 | 0.00 | 75 | 29.8 |
| 20260505215500 | 15 | 206 | 32.2 | 41.8 | 0.00 | 0.00 | 0.00 | 75 | 29.8 |
| 20260505215000 | 15 | 210 | 30.6 | 48.3 | 0.00 | 0.00 | 0.00 | 76 | 29.8 |
| 20260505214501 | 15 | 221 | 27.4 | 41.8 | 0.00 | 0.00 | 0.00 | 75 | 29.8 |
| 20260505213500 | 15 | 202 | 25.7 | 43.5 | 0.00 | 0.00 | 0.00 | 75 | 29.8 |
| 20260505213000 | 15 | 197 | 29.0 | 48.3 | 0.00 | 0.00 | 0.00 | 74 | 29.8 |